Regional Weather Roundup
Issued by NWS

Home | Current Version | Previous Version | Text Only | Print | Product List | Glossary Off
Versions: 1 2 3 4 5 6 7 8 9 10 11 12 13 14 15 16 17 18 19 20 21 22 23 24 25 26 27 28 29 30 31 32 33 34 35 36 37 38 39 40 41 42 43 44 45 46 47 48 49 50

000
ASUS43 KDTX 010310
RWRMI
MICHIGAN HOURLY REGIONAL WEATHER ROUNDUP
NATIONAL WEATHER SERVICE DETROIT/PONTIAC MI
1100 PM EDT FRI OCT 31 2014

NOTE: "FAIR" INDICATES FEW OR NO CLOUDS BELOW 12,000 FEET WITH NO
SIGNIFICANT WEATHER AND/OR OBSTRUCTION TO VISIBILITY.

MIZ047>049-052>055-059>063-066>070-074>076-081>083-010400-
SOUTHEAST LOWER MICHIGAN

CITY           SKY/WX    TMP DP  RH WIND       PRES   REMARKS
ADRIAN         CLOUDY    33  28  81 N25G32    30.11R
ALMA           CLOUDY    33  23  66 N22G28    30.26S
ANN ARBOR      CLOUDY    34  29  82 N18G31    30.09R
BAD AXE        CLOUDY    34  32  93 N21G29    30.19R
DETROIT CITY   CLOUDY    38  32  79 N20G38    30.07R
DETROIT        FLURRIES  36  32  85 N20G30    30.07R
FLINT          LGT SNOW  34  31  88 N17G24    30.19R FOG
GROSSE ILE     DRIZZLE   37  34  87 N22G36    30.04R
HILLSDALE      CLOUDY    33  27  78 N20G30    30.13R
HOWELL         CLOUDY    31  30  96 N12G23    30.15R

CITY           SKY/WX    TMP DP  RH WIND       PRES   REMARKS
JACKSON        CLOUDY    32  26  78 N20G29    30.16R
LAMBERTVILLE   DRIZZLE   36  32  87 N16G23    30.07R
LANSING        CLOUDY    33  23  66 N18G30    30.22R
LAPEER         NOT AVBL
MASON          CLOUDY    32  26  77 N17G28    30.18R
MONROE         RAIN      36  34  93 N20G29    30.04R
MT. CLEMENS    LGT RAIN  36  36 100 N21G30    30.05R
PONTIAC        LGT SNOW  34  30  85 N21G30    30.09R
PORT HOPE        N/A     39  30  70 N28G38    30.18R
PORT HURON     DRIZZLE   39  36  87 N18G32    30.07R
TRI CITIES     CLOUDY    34  24  67 N24G38    30.24R
YPSILANTI      FLURRIES  38  31  76 N21G35    30.09R
$$
MIZ043>046-050>051-056>058-064>065-071>073-077>080-010400-
SOUTHWEST LOWER MICHIGAN

CITY           SKY/WX    TMP DP  RH WIND       PRES   REMARKS
BATTLE CREEK   CLOUDY    33  21  61 N22G31    30.22R
BENTON HARBOR  CLOUDY    34  21  59 NE12G24   30.28R
BIG RAPIDS     MOCLDY    31  22  69 N17G24    30.30R
COLDWATER      CLOUDY    34  25  68 N20G37    30.18R
HOLLAND        CLOUDY    35  23  61 N10G17    30.30R
GRAND RAPIDS   CLOUDY    34  21  59 N22       30.27R
KALAMAZOO      CLOUDY    34  22  61 N17G25    30.23R
MARSHALL       CLOUDY    32  22  67 N10G23    30.19R
MUSKEGON       CLOUDY    36  23  59 N10       30.32R
$$
MIZ016>042-010400-
NORTHERN LOWER MICHIGAN

CITY           SKY/WX    TMP DP  RH WIND       PRES   REMARKS
ALPENA         CLOUDY    31  21  66 N23G29    30.33R
BEAVER ISLAND  CLOUDY    33  19  57 N13G18    30.40R
BELLAIRE       CLOUDY    32  18  56 N10G20    30.38R
CADILLAC       CLOUDY    27  21  76 N10       30.29R
CHARLEVOIX     CLOUDY    31  19  59 NE17G24   30.41R
FRANKFORT      CLOUDY    35  24  65 NE6       30.37R
GAYLORD        CLOUDY    27  19  72 NE13G21   30.32R
GRAYLING       CLOUDY    29  18  63 N15G24    30.33R
HARBOR SPRINGS CLOUDY    29  18  62 NE6       30.39R
HOUGHTON LAKE  CLOUDY    29  19  66 N12G26    30.31R
OSCODA         MIX PCPN  32  27  81 N17G30    30.27R
PELLSTON       CLOUDY    29  18  63 N17G24    30.39R
TRAVERSE CITY  CLOUDY    34  20  56 NE14G25   30.35R
$$
MIZ007>008-015-010400-
EASTERN UPPER MICHIGAN

CITY           SKY/WX    TMP DP  RH WIND       PRES   REMARKS
KINROSS        PTCLDY    27  19  74 N5        30.40R
MACKINAC ISLAN CLEAR     29  17  59 NE18G25   30.39R
NEWBERRY       CLOUDY    30  19  63 N7        30.39S
S. S. MARIE    CLEAR     27  15  61 N6        30.40R
$$
MIZ004>006-011>014-085-010400-
CENTRAL UPPER MICHIGAN

CITY           SKY/WX    TMP DP  RH WIND       PRES   REMARKS
MANISTIQUE     CLOUDY    32  19  59 N6        30.42R
ESCANABA       CLOUDY    34  19  55 N9G20     30.43S
MENOMINEE      CLOUDY    32  19  59 N7        30.44S
SAWYER-GWINN   CLOUDY    32  23  71 N9        30.41S
$$
MIZ001>003-009>011-084-010400-
WESTERN UPPER MICHIGAN

CITY           SKY/WX    TMP DP  RH WIND       PRES   REMARKS
IRON MOUNTAIN  CLOUDY    31  18  58 N10G20    30.44R
HOUGHTON       PTCLDY    24  20  84 CALM      30.44F
COPPER HARBOR    N/A     35  25  66 NE10      30.46S
IRONWOOD       PTCLDY    19  19 100 CALM      30.45S
$$

ABBREVIATIONS USED IN REMARKS
   TC - TEMPERATURE IN CELSIUS
  WCI - WIND CHILL INDEX
   HX - HEAT INDEX
  VSB - VISIBILITY




USA.gov is the U.S. government's official web portal to all federal, state and local government web resources and services.